STARLINK-34364, 64495

Orbit data source: Space-Track

STARLINK-34364, 64495 is a payload satellite owned by SpaceX/Seattle (US) in LEO that was launched on Mon, 23 Jun 2025 UTC via an FALCON 9 launch vehicle from the Air Force Eastern Test Range (AFETR). Payload-class satellites include a variety of spacecraft equipped with specific instruments for various scientific and technological missions. These include communications satellites like Starlink; space stations such as the ISS; scientific satellites like the Hubble; Earth observation satellites from companies like Planet Labs, Umbra, and HawkEye 360; GPS; miniature CubeSats for education and research; and military/defense satellites.

Loading next visibility...
Identifier
64495, 2025-133Z
Orbit
LEO
Country
Flag of USUS
Related business
Manufacturer
SpaceX/Seattle
Mission
Operational Commercial Communications
Bus & Motor
STARLINK V2MO, Unknown motor
Mass
575 kg wet, ~530 kg dry
Launch date (UTC)
2025-06-23 (1 year ago)
Launch vehicle
FALCON 9
Launch site
Air Force Eastern Test Range (AFETR)
Object type
Payload
Rocket body
Debris
Shape & HBR
Box + 2 Pan, 17.7 m
Radar Cross Section
36.964 m², Large (>1 m²)

Expand to show TLE details & history
Last TLE update: 22 hours ago

TLE from 22 hours ago
0 STARLINK-34364
1 64495U 25133Z   26170.92417598  .00020055  00000-0  60291-3 0  9996
2 64495  53.1602 358.1686 0000864  69.0881 291.0214 15.34410155 56890
Epoch: 2026-06-19T22:10Z
TLE epoch observation values (Epoch: 2026-06-19T22:10:48.804Z)
Latitude
-0.00003°
Longitude
117.31905°
Altitude
463.362 km
Speed
7.636 km/s
True Right ascension
23h 52m 40s
True Declination
0° 00' 00"
Sunlit
Object was in daylight at epoch
Visualization orbit readout
Latitude
Unknown
Longitude
Unknown
Altitude
Unknown
Speed
Unknown
Apparent Right ascension
Unknown
Apparent Declination
Unknown
Sunlit
N/A
Visualization observer readout
Local Sidereal Time
07:19:10
Azimuth
Unknown
Elevation
Unknown
Doppler factor
Unknown
Orbital elements
Apogee altitude
463.521 km
Perigee altitude
462.339 km
Semi-major axis
6,841.067 km
Eccentricity
0.00009
Inclination
53.1602°
RAAN
358.1686°
Arg. of periapsis
69.0881°
True anomaly
291.01216°
Mean anomaly
291.0214°
Eccentric anomaly
291.01678°
Mean motion
3.83581 °/min
Orbital period
93.85 mins
BSTAR
0.00060291
Loading maneuver chart data...
Computing Atmospheric mass density...
Loading historical data...
Loading historical data...
Loading historical data...
Loading historical data...
Loading historical data...
Loading historical data...
Loading historical data...

Documentation

Showing up to 5 results
|